Torna al catalogo

SL-16 DEB

AttivoLEO
NORAD 32006·DEBRIS·🇷🇺 Russia

Lanciato Jun 10, 2004 da Baikonur Cosmodrome

Loading…

Prossimi Passaggi (prossime 24 ore)

TLE

In scadenzaSource: Space-Track

Epoca: Sep 11, 2026, 10:02 UTC

1 32006U 04021J   26254.41867434  .00001152  00000-0  84808-3 0  9994
2 32006  71.0944 162.4754 0167830 165.9239 194.6636 13.91132477668493

Traccia SL-16 DEB in tempo reale con AllMySat

Download on the App Store